Skip Page Navigation
NASA JPL Caltech
NASA Logo - Jet Propulsion Laboratory + View the NASA Portal
+ Near-Earth Object (NEO) Program
Search JPL
JPL Home Earth Solar System Stars & Galaxies Technology
JPL Solar System Dynamics
BODIES ORBITS EPHEMERIDES TOOLS PHYSICAL DATA DISCOVERY FAQ SITE MAP
JPL Small-Body Database Browser
Search: [ help ]  
7419 (1991 PN13)
Classification: Main-belt Asteroid          SPK-ID: 2007419
Ephemeris | Orbit Diagram | Orbital Elements | Physical Parameters | Discovery Circumstances ]

[ show orbit diagram ]
Orbital Elements at Epoch 2457000.5 (2014-Dec-09.0) TDB
Reference: JPL 11 (heliocentric ecliptic J2000)
 Element Value Uncertainty (1-sigma)   Units 
e .1868027181513109 7.3659e-08  
a 2.659013894036512 1.9754e-08 AU
q 2.16230287102839 1.9195e-07 AU
i 12.46746218030833 8.1497e-06 deg
node 335.4707955158385 2.9032e-05 deg
peri 47.91761150771856 3.8253e-05 deg
M 100.6800681882427 1.8691e-05 deg
tp 2456557.585052534653
(2013-Sep-22.08505253)
8.3135e-05 JED
period 1583.723411762104
4.34
1.7649e-05
4.832e-08
d
yr
n .2273124191549658 2.5331e-09 deg/d
Q 3.155724917044634 2.3445e-08 AU
  Orbit Determination Parameters
   # obs. used (total)      979  
   data-arc span      23368 days (63.98 yr)  
   first obs. used      1950-04-17  
   last obs. used      2014-04-09  
   planetary ephem.      DE431  
   SB-pert. ephem.      SB431-BIG16  
   condition code      0  
   fit RMS      .53444  
   data source      ORB  
   producer      Otto Matic  
   solution date      2014-Jun-09 18:58:47  

Additional Information
 Earth MOID = 1.18447 AU 
 T_jup = 3.328 
[ show covariance matrix ]

Ephemeris | Orbit Diagram | Orbital Elements | Physical Parameters | Discovery Circumstances ]

Physical Parameter Table
Parameter Symbol Value Units Sigma Reference Notes
absolute magnitude H 12.7 mag n/a MPO267737  

7419 (1991 PN13)          Discovered 1991-Aug-05 by Holt, H. E. at Palomar (675)
Reference: DISCOVERY.DBLast Updated: 2003-08-29

Alternate Designations
 1991 PN13 = 1983 XJ1 = 1987 SW14 = 1990 HX2 
Ephemeris | Orbit Diagram | Orbital Elements | Physical Parameters | Discovery Circumstances ]
ABOUT SSD CREDITS/AWARDS PRIVACY/COPYRIGHT GLOSSARY LINKS
FirstGov 2014-Oct-26 08:31 UT
(server date/time)  
NASA Home Page
Site Manager:   Donald K. Yeomans
Webmaster  Alan B. Chamberlin